TimeCST,TemperatureF,Dew PointF,Humidity,Sea Level PressureIn,VisibilityMPH,Wind Direction,Wind SpeedMPH,Gust SpeedMPH,PrecipitationIn,Events,Conditions,WindDirDegrees,DateUTC
12:15 AM,20.3,15.6,82,30.25,10.0,South,6.9,-,N/A,,Clear,170,2013-01-07 06:15:00
12:35 AM,19.9,15.1,81,30.24,10.0,South,8.1,-,N/A,,Clear,170,2013-01-07 06:35:00
12:55 AM,19.2,14.9,83,30.23,10.0,SSE,8.1,-,N/A,,Clear,160,2013-01-07 06:55:00
1:35 AM,21.9,16.7,80,30.23,10.0,SSE,9.2,-,N/A,,Clear,160,2013-01-07 07:35:00
1:55 AM,19.0,14.7,83,30.23,10.0,South,8.1,-,N/A,,Clear,180,2013-01-07 07:55:00
2:15 AM,19.6,15.6,85,30.24,10.0,SSW,9.2,-,N/A,,Clear,200,2013-01-07 08:15:00
2:35 AM,20.3,15.8,83,30.25,10.0,SSW,9.2,-,N/A,,Clear,200,2013-01-07 08:35:00
2:55 AM,21.4,16.9,83,30.24,10.0,South,10.4,-,N/A,,Clear,190,2013-01-07 08:55:00
3:15 AM,20.7,16.2,83,30.24,10.0,South,10.4,-,N/A,,Clear,170,2013-01-07 09:15:00
3:35 AM,21.0,16.5,83,30.24,10.0,South,10.4,-,N/A,,Clear,180,2013-01-07 09:35:00
3:55 AM,20.8,16.5,83,30.23,10.0,South,10.4,-,N/A,,Clear,180,2013-01-07 09:55:00
4:15 AM,21.2,17.1,84,30.22,10.0,South,10.4,-,N/A,,Clear,190,2013-01-07 10:15:00
4:35 AM,23.5,18.7,82,30.22,10.0,South,12.7,-,N/A,,Clear,190,2013-01-07 10:35:00
4:55 AM,23.7,18.9,82,30.20,10.0,South,13.8,-,N/A,,Clear,190,2013-01-07 10:55:00
5:15 AM,23.9,19.0,82,30.19,10.0,South,13.8,-,N/A,,Clear,180,2013-01-07 11:15:00
5:35 AM,24.4,19.4,81,30.19,10.0,South,11.5,-,N/A,,Clear,180,2013-01-07 11:35:00
5:55 AM,24.6,19.4,81,30.18,10.0,South,11.5,-,N/A,,Clear,180,2013-01-07 11:55:00
6:35 AM,25.7,20.1,79,30.17,10.0,South,15.0,-,N/A,,Clear,180,2013-01-07 12:35:00
6:55 AM,26.8,19.9,75,30.18,10.0,SSW,10.4,-,N/A,,Clear,200,2013-01-07 12:55:00
7:15 AM,25.5,19.4,78,30.17,10.0,South,11.5,-,N/A,,Clear,190,2013-01-07 13:15:00
7:35 AM,25.9,19.6,77,30.17,10.0,South,12.7,-,N/A,,Clear,190,2013-01-07 13:35:00
7:55 AM,27.0,20.1,75,30.17,10.0,South,13.8,-,N/A,,Clear,180,2013-01-07 13:55:00
8:15 AM,28.2,21.0,74,30.15,10.0,South,16.1,-,N/A,,Clear,180,2013-01-07 14:15:00
8:35 AM,30.0,21.9,72,30.15,10.0,South,15.0,-,N/A,,Clear,180,2013-01-07 14:35:00
8:55 AM,32.7,22.6,66,30.14,10.0,SSW,18.4,23.0,N/A,,Clear,200,2013-01-07 14:55:00
9:15 AM,33.3,22.5,65,30.13,10.0,South,18.4,23.0,N/A,,Clear,190,2013-01-07 15:15:00
9:35 AM,34.9,23.0,62,30.13,10.0,South,19.6,23.0,N/A,,Clear,190,2013-01-07 15:35:00
9:55 AM,37.6,22.6,55,30.14,10.0,SSW,16.1,23.0,N/A,,Clear,200,2013-01-07 15:55:00
10:15 AM,38.7,22.1,51,30.14,10.0,SSW,18.4,24.2,N/A,,Clear,210,2013-01-07 16:15:00
10:35 AM,39.6,22.1,50,30.14,10.0,SSW,19.6,26.5,N/A,,Clear,210,2013-01-07 16:35:00
10:55 AM,41.0,22.3,47,30.12,10.0,SSW,19.6,25.3,N/A,,Clear,200,2013-01-07 16:55:00
11:15 AM,42.8,22.8,45,30.11,10.0,SSW,18.4,23.0,N/A,,Clear,200,2013-01-07 17:15:00
11:35 AM,44.8,22.1,41,30.09,10.0,SSW,21.9,28.8,N/A,,Clear,210,2013-01-07 17:35:00
11:55 AM,45.5,21.6,39,30.08,10.0,SW,24.2,29.9,N/A,,Clear,220,2013-01-07 17:55:00
12:15 PM,46.8,21.7,37,30.07,10.0,SSW,20.7,28.8,N/A,,Clear,210,2013-01-07 18:15:00
12:35 PM,46.8,21.4,37,30.06,10.0,SW,21.9,-,N/A,,Clear,220,2013-01-07 18:35:00
1:15 PM,49.1,21.6,34,30.03,10.0,SSW,21.9,-,N/A,,Clear,210,2013-01-07 19:15:00
1:35 PM,49.5,21.0,33,30.03,10.0,SSW,20.7,26.5,N/A,,Clear,210,2013-01-07 19:35:00
1:55 PM,49.1,20.5,32,30.02,10.0,SW,19.6,24.2,N/A,,Clear,220,2013-01-07 19:55:00
2:15 PM,48.2,20.8,34,30.02,10.0,SW,21.9,27.6,N/A,,Clear,220,2013-01-07 20:15:00
2:35 PM,48.6,21.0,34,30.03,10.0,SW,20.7,25.3,N/A,,Clear,220,2013-01-07 20:35:00
2:55 PM,48.0,21.6,35,30.02,10.0,SW,23.0,26.5,N/A,,Clear,220,2013-01-07 20:55:00
3:15 PM,46.9,22.1,38,30.04,10.0,SW,16.1,24.2,N/A,,Clear,220,2013-01-07 21:15:00
3:35 PM,46.6,22.1,38,30.04,10.0,SW,13.8,20.7,N/A,,Clear,220,2013-01-07 21:35:00
3:55 PM,45.5,22.6,41,30.04,10.0,SW,11.5,-,N/A,,Clear,220,2013-01-07 21:55:00
4:15 PM,44.1,23.0,43,30.04,10.0,SW,8.1,-,N/A,,Clear,220,2013-01-07 22:15:00
4:35 PM,40.6,22.6,49,30.04,10.0,SSW,8.1,-,N/A,,Clear,210,2013-01-07 22:35:00
5:15 PM,41.0,23.4,50,30.05,10.0,SW,11.5,-,N/A,,Clear,230,2013-01-07 23:15:00
5:35 PM,38.8,23.4,54,30.04,10.0,SSW,8.1,-,N/A,,Clear,210,2013-01-07 23:35:00
5:55 PM,36.9,23.0,57,30.04,10.0,SSW,9.2,-,N/A,,Clear,210,2013-01-07 23:55:00
6:15 PM,35.8,23.2,60,30.04,10.0,SSW,11.5,-,N/A,,Clear,200,2013-01-08 00:15:00
6:35 PM,34.7,23.5,64,30.04,10.0,South,10.4,-,N/A,,Clear,190,2013-01-08 00:35:00
6:55 PM,34.5,23.9,65,30.04,10.0,South,10.4,-,N/A,,Clear,180,2013-01-08 00:55:00
7:15 PM,32.9,23.9,69,30.05,10.0,South,5.8,-,N/A,,Clear,170,2013-01-08 01:15:00
7:35 PM,31.1,23.7,74,30.05,10.0,South,8.1,-,N/A,,Clear,170,2013-01-08 01:35:00
7:55 PM,31.3,24.1,75,30.05,10.0,South,9.2,-,N/A,,Clear,170,2013-01-08 01:55:00
8:15 PM,31.6,25.0,76,30.04,10.0,South,9.2,-,N/A,,Clear,180,2013-01-08 02:15:00
8:35 PM,32.0,25.5,77,30.04,10.0,South,10.4,-,N/A,,Clear,180,2013-01-08 02:35:00
8:55 PM,31.1,25.0,78,30.04,10.0,South,9.2,-,N/A,,Clear,180,2013-01-08 02:55:00
9:15 PM,31.1,25.3,79,30.04,10.0,South,8.1,-,N/A,,Clear,190,2013-01-08 03:15:00
9:35 PM,31.1,25.5,80,30.04,10.0,South,9.2,-,N/A,,Clear,190,2013-01-08 03:35:00
9:55 PM,31.6,26.1,80,30.05,10.0,South,8.1,-,N/A,,Clear,190,2013-01-08 03:55:00
10:15 PM,31.1,25.5,80,30.05,10.0,South,6.9,-,N/A,,Clear,190,2013-01-08 04:15:00
10:35 PM,29.8,24.8,81,30.05,10.0,South,6.9,-,N/A,,Clear,190,2013-01-08 04:35:00
10:55 PM,30.2,25.3,82,30.04,10.0,South,6.9,-,N/A,,Clear,180,2013-01-08 04:55:00
11:15 PM,30.2,25.2,82,30.05,10.0,South,5.8,-,N/A,,Clear,180,2013-01-08 05:15:00
11:35 PM,30.4,25.5,82,30.04,10.0,South,5.8,-,N/A,,Clear,190,2013-01-08 05:35:00
11:55 PM,30.2,25.3,82,30.04,10.0,SSW,4.6,-,N/A,,Clear,200,2013-01-08 05:55:00